#Datum;Uhrzeit;WR;Pac;DaySum;Status;WR;Pac;DaySum;Status;Pdc1;Udc;Temp;WR;Pac;DaySum;Status;Pdc1;Udc;Temp;WR;Pac;DaySum;Status;Pdc1;Udc;Temp;WR;Pac;DaySum;Status;Pdc1;Pdc2;Udc1;Udc2;Temp;WR;Pac;DaySum;Status;Pdc1;Pdc2;Udc1;Udc2;Temp;WR;Pac;DaySum;Status;Pdc1;Udc;Temp;WR;Pac;DaySum;Status;Pdc1;Udc;Temp;WR;Pac;DaySum;Status;Pdc1;Udc;Temp
08.11.19;23:55:00;1;213;11169;0;2;0;6765;0;0;0;0;3;0;4218;0;0;0;0;4;0;5630;0;0;0;0;5;0;13384;0;0;0;0;0;0;6;0;10037;0;0;0;0;0;0;7;0;8765;0;0;0;0;8;0;8715;0;0;0;0;9;0;4603;0;0;0;0
08.11.19;23:50:00;1;209;11151;0;2;0;6765;0;0;0;0;3;0;4218;0;0;0;0;4;0;5630;0;0;0;0;5;0;13384;0;0;0;0;0;0;6;0;10037;0;0;0;0;0;0;7;0;8765;0;0;0;0;8;0;8715;0;0;0;0;9;0;4603;0;0;0;0
08.11.19;23:45:00;1;212;11133;0;2;0;6765;0;0;0;0;3;0;4218;0;0;0;0;4;0;5630;0;0;0;0;5;0;13384;0;0;0;0;0;0;6;0;10037;0;0;0;0;0;0;7;0;8765;0;0;0;0;8;0;8715;0;0;0;0;9;0;4603;0;0;0;0
08.11.19;23:40:00;1;276;11115;0;2;0;6765;0;0;0;0;3;0;4218;0;0;0;0;4;0;5630;0;0;0;0;5;0;13384;0;0;0;0;0;0;6;0;10037;0;0;0;0;0;0;7;0;8765;0;0;0;0;8;0;8715;0;0;0;0;9;0;4603;0;0;0;0
08.11.19;23:35:00;1;277;11092;0;2;0;6765;0;0;0;0;3;0;4218;0;0;0;0;4;0;5630;0;0;0;0;5;0;13384;0;0;0;0;0;0;6;0;10037;0;0;0;0;0;0;7;0;8765;0;0;0;0;8;0;8715;0;0;0;0;9;0;4603;0;0;0;0
08.11.19;23:30:00;1;256;11070;0;2;0;6765;0;0;0;0;3;0;4218;0;0;0;0;4;0;5630;0;0;0;0;5;0;13384;0;0;0;0;0;0;6;0;10037;0;0;0;0;0;0;7;0;8765;0;0;0;0;8;0;8715;0;0;0;0;9;0;4603;0;0;0;0
08.11.19;23:25:00;1;246;11048;0;2;0;6765;0;0;0;0;3;0;4218;0;0;0;0;4;0;5630;0;0;0;0;5;0;13384;0;0;0;0;0;0;6;0;10037;0;0;0;0;0;0;7;0;8765;0;0;0;0;8;0;8715;0;0;0;0;9;0;4603;0;0;0;0
08.11.19;23:20:00;1;214;11028;0;2;0;6765;0;0;0;0;3;0;4218;0;0;0;0;4;0;5630;0;0;0;0;5;0;13384;0;0;0;0;0;0;6;0;10037;0;0;0;0;0;0;7;0;8765;0;0;0;0;8;0;8715;0;0;0;0;9;0;4603;0;0;0;0
08.11.19;23:15:00;1;214;11010;0;2;0;6765;0;0;0;0;3;0;4218;0;0;0;0;4;0;5630;0;0;0;0;5;0;13384;0;0;0;0;0;0;6;0;10037;0;0;0;0;0;0;7;0;8765;0;0;0;0;8;0;8715;0;0;0;0;9;0;4603;0;0;0;0
08.11.19;23:10:00;1;215;10992;0;2;0;6765;0;0;0;0;3;0;4218;0;0;0;0;4;0;5630;0;0;0;0;5;0;13384;0;0;0;0;0;0;6;0;10037;0;0;0;0;0;0;7;0;8765;0;0;0;0;8;0;8715;0;0;0;0;9;0;4603;0;0;0;0
08.11.19;23:05:00;1;266;10973;0;2;0;6765;0;0;0;0;3;0;4218;0;0;0;0;4;0;5630;0;0;0;0;5;0;13384;0;0;0;0;0;0;6;0;10037;0;0;0;0;0;0;7;0;8765;0;0;0;0;8;0;8715;0;0;0;0;9;0;4603;0;0;0;0
08.11.19;23:00:00;1;216;10951;0;2;0;6765;0;0;0;0;3;0;4218;0;0;0;0;4;0;5630;0;0;0;0;5;0;13384;0;0;0;0;0;0;6;0;10037;0;0;0;0;0;0;7;0;8765;0;0;0;0;8;0;8715;0;0;0;0;9;0;4603;0;0;0;0
08.11.19;22:55:00;1;217;10933;0;2;0;6765;0;0;0;0;3;0;4218;0;0;0;0;4;0;5630;0;0;0;0;5;0;13384;2;0;0;0;0;0;6;0;10037;2;0;0;0;0;0;7;0;8765;0;0;0;0;8;0;8715;0;0;0;0;9;0;4603;0;0;0;0
08.11.19;22:50:00;1;249;10915;0;2;0;6765;0;0;0;0;3;0;4218;0;0;0;0;4;0;5630;0;0;0;0;5;0;13384;2;0;0;0;0;0;6;0;10037;2;0;0;0;0;0;7;0;8765;0;0;0;0;8;0;8715;0;0;0;0;9;0;4603;0;0;0;0
08.11.19;22:45:00;1;254;10894;0;2;0;6765;0;0;0;0;3;0;4218;0;0;0;0;4;0;5630;0;0;0;0;5;0;13384;2;0;0;0;0;0;6;0;10037;2;0;0;0;0;0;7;0;8765;0;0;0;0;8;0;8715;0;0;0;0;9;0;4603;0;0;0;0
08.11.19;22:40:00;1;311;10873;0;2;0;6765;0;0;0;0;3;0;4218;0;0;0;0;4;0;5630;0;0;0;0;5;0;13384;2;0;0;0;0;0;6;0;10037;2;0;0;0;0;0;7;0;8765;0;0;0;0;8;0;8715;0;0;0;0;9;0;4603;0;0;0;0
08.11.19;22:35:00;1;331;10847;0;2;0;6765;0;0;0;0;3;0;4218;0;0;0;0;4;0;5630;0;0;0;0;5;0;13384;2;0;0;0;0;0;6;0;10037;2;0;0;0;0;0;7;0;8765;0;0;0;0;8;0;8715;0;0;0;0;9;0;4603;0;0;0;0
08.11.19;22:30:00;1;324;10818;0;2;0;6765;0;0;0;0;3;0;4218;0;0;0;0;4;0;5630;0;0;0;0;5;0;13384;2;0;0;0;0;0;6;0;10037;2;0;0;0;0;0;7;0;8765;0;0;0;0;8;0;8715;0;0;0;0;9;0;4603;0;0;0;0
08.11.19;22:25:00;1;318;10790;0;2;0;6765;0;0;0;0;3;0;4218;0;0;0;0;4;0;5630;0;0;0;0;5;0;13384;2;0;0;0;0;0;6;0;10037;2;0;0;0;0;0;7;0;8765;0;0;0;0;8;0;8715;0;0;0;0;9;0;4603;0;0;0;0
08.11.19;22:20:00;1;332;10763;0;2;0;6765;0;0;0;0;3;0;4218;0;0;0;0;4;0;5630;0;0;0;0;5;0;13384;2;0;0;0;0;0;6;0;10037;2;0;0;0;0;0;7;0;8765;0;0;0;0;8;0;8715;0;0;0;0;9;0;4603;0;0;0;0
08.11.19;22:15:00;1;316;10736;0;2;0;6765;0;0;0;0;3;0;4218;0;0;0;0;4;0;5630;0;0;0;0;5;0;13384;2;0;0;0;0;0;6;0;10037;2;0;0;0;0;0;7;0;8765;0;0;0;0;8;0;8715;0;0;0;0;9;0;4603;0;0;0;0
08.11.19;22:10:00;1;287;10709;0;2;0;6765;0;0;0;0;3;0;4218;0;0;0;0;4;0;5630;0;0;0;0;5;0;13384;2;0;0;0;0;0;6;0;10037;2;0;0;0;0;0;7;0;8765;0;0;0;0;8;0;8715;0;0;0;0;9;0;4603;0;0;0;0
08.11.19;22:05:00;1;210;10686;0;2;0;6765;0;0;0;0;3;0;4218;0;0;0;0;4;0;5630;0;0;0;0;5;0;13384;2;0;0;0;0;0;6;0;10037;2;0;0;0;0;0;7;0;8765;0;0;0;0;8;0;8715;0;0;0;0;9;0;4603;0;0;0;0
08.11.19;22:00:00;1;288;10668;0;2;0;6765;0;0;0;0;3;0;4218;0;0;0;0;4;0;5630;0;0;0;0;5;0;13384;2;0;0;0;0;0;6;0;10037;2;0;0;0;0;0;7;0;8765;0;0;0;0;8;0;8715;0;0;0;0;9;0;4603;0;0;0;0
08.11.19;21:55:00;1;269;10644;0;2;0;6765;0;0;0;0;3;0;4218;0;0;0;0;4;0;5630;0;0;0;0;5;0;13384;2;0;0;0;0;0;6;0;10037;2;0;0;0;0;0;7;0;8765;0;0;0;0;8;0;8715;0;0;0;0;9;0;4603;0;0;0;0
08.11.19;21:50:00;1;254;10622;0;2;0;6765;0;0;0;0;3;0;4218;0;0;0;0;4;0;5630;0;0;0;0;5;0;13384;2;0;0;0;0;0;6;0;10037;2;0;0;0;0;0;7;0;8765;0;0;0;0;8;0;8715;0;0;0;0;9;0;4603;0;0;0;0
08.11.19;21:45:00;1;245;10600;0;2;0;6765;0;0;0;0;3;0;4218;0;0;0;0;4;0;5630;0;0;0;0;5;0;13384;2;0;0;0;0;0;6;0;10037;2;0;0;0;0;0;7;0;8765;0;0;0;0;8;0;8715;0;0;0;0;9;0;4603;0;0;0;0
08.11.19;21:40:00;1;209;10582;0;2;0;6765;0;0;0;0;3;0;4218;0;0;0;0;4;0;5630;0;0;0;0;5;0;13384;2;0;0;0;0;0;6;0;10037;2;0;0;0;0;0;7;0;8765;0;0;0;0;8;0;8715;0;0;0;0;9;0;4603;0;0;0;0
08.11.19;21:35:00;1;209;10565;0;2;0;6765;0;0;0;0;3;0;4218;0;0;0;0;4;0;5630;0;0;0;0;5;0;13384;2;0;0;0;0;0;6;0;10037;2;0;0;0;0;0;7;0;8765;0;0;0;0;8;0;8715;0;0;0;0;9;0;4603;0;0;0;0
08.11.19;21:30:00;1;209;10547;0;2;0;6765;0;0;0;0;3;0;4218;0;0;0;0;4;0;5630;0;0;0;0;5;0;13384;2;0;0;0;0;0;6;0;10037;2;0;0;0;0;0;7;0;8765;0;0;0;0;8;0;8715;0;0;0;0;9;0;4603;0;0;0;0
08.11.19;21:25:00;1;260;10529;0;2;0;6765;0;0;0;0;3;0;4218;0;0;0;0;4;0;5630;0;0;0;0;5;0;13384;2;0;0;0;0;0;6;0;10037;2;0;0;0;0;0;7;0;8765;0;0;0;0;8;0;8715;0;0;0;0;9;0;4603;0;0;0;0
08.11.19;21:20:00;1;212;10507;0;2;0;6765;0;0;0;0;3;0;4218;0;0;0;0;4;0;5630;0;0;0;0;5;0;13384;2;0;0;0;0;0;6;0;10037;2;0;0;0;0;0;7;0;8765;0;0;0;0;8;0;8715;0;0;0;0;9;0;4603;0;0;0;0
08.11.19;21:15:00;1;232;10490;0;2;0;6765;0;0;0;0;3;0;4218;0;0;0;0;4;0;5630;0;0;0;0;5;0;13384;2;0;0;0;0;0;6;0;10037;2;0;0;0;0;0;7;0;8765;0;0;0;0;8;0;8715;0;0;0;0;9;0;4603;0;0;0;0
08.11.19;21:10:00;1;249;10470;0;2;0;6765;0;0;0;0;3;0;4218;0;0;0;0;4;0;5630;0;0;0;0;5;0;13384;2;0;0;0;0;0;6;0;10037;2;0;0;0;0;0;7;0;8765;0;0;0;0;8;0;8715;0;0;0;0;9;0;4603;0;0;0;0
08.11.19;21:05:00;1;248;10449;0;2;0;6765;0;0;0;0;3;0;4218;0;0;0;0;4;0;5630;0;0;0;0;5;0;13384;2;0;0;0;0;0;6;0;10037;2;0;0;0;0;0;7;0;8765;0;0;0;0;8;0;8715;0;0;0;0;9;0;4603;0;0;0;0
08.11.19;21:00:00;1;251;10429;0;2;0;6765;0;0;0;0;3;0;4218;0;0;0;0;4;0;5630;0;0;0;0;5;0;13384;2;0;0;0;0;0;6;0;10037;2;0;0;0;0;0;7;0;8765;0;0;0;0;8;0;8715;0;0;0;0;9;0;4603;0;0;0;0
08.11.19;20:55:00;1;224;10407;0;2;0;6765;0;0;0;0;3;0;4218;0;0;0;0;4;0;5630;0;0;0;0;5;0;13384;2;0;0;0;0;0;6;0;10037;2;0;0;0;0;0;7;0;8765;0;0;0;0;8;0;8715;0;0;0;0;9;0;4603;0;0;0;0
08.11.19;20:50:00;1;269;10388;0;2;0;6765;0;0;0;0;3;0;4218;0;0;0;0;4;0;5630;0;0;0;0;5;0;13384;2;0;0;0;0;0;6;0;10037;2;0;0;0;0;0;7;0;8765;0;0;0;0;8;0;8715;0;0;0;0;9;0;4603;0;0;0;0
08.11.19;20:45:00;1;209;10368;0;2;0;6765;0;0;0;0;3;0;4218;0;0;0;0;4;0;5630;0;0;0;0;5;0;13384;2;0;0;0;0;0;6;0;10037;2;0;0;0;0;0;7;0;8765;0;0;0;0;8;0;8715;0;0;0;0;9;0;4603;0;0;0;0
08.11.19;20:40:00;1;249;10350;0;2;0;6765;0;0;0;0;3;0;4218;0;0;0;0;4;0;5630;0;0;0;0;5;0;13384;2;0;0;0;0;0;6;0;10037;2;0;0;0;0;0;7;0;8765;0;0;0;0;8;0;8715;0;0;0;0;9;0;4603;0;0;0;0
08.11.19;20:35:00;1;274;10330;0;2;0;6765;0;0;0;0;3;0;4218;0;0;0;0;4;0;5630;0;0;0;0;5;0;13384;2;0;0;0;0;0;6;0;10037;2;0;0;0;0;0;7;0;8765;0;0;0;0;8;0;8715;0;0;0;0;9;0;4603;0;0;0;0
08.11.19;20:30:00;1;276;10307;0;2;0;6765;0;0;0;0;3;0;4218;0;0;0;0;4;0;5630;0;0;0;0;5;0;13384;2;0;0;0;0;0;6;0;10037;2;0;0;0;0;0;7;0;8765;0;0;0;0;8;0;8715;0;0;0;0;9;0;4603;0;0;0;0
08.11.19;20:25:00;1;281;10284;0;2;0;6765;0;0;0;0;3;0;4218;0;0;0;0;4;0;5630;0;0;0;0;5;0;13384;2;0;0;0;0;0;6;0;10037;2;0;0;0;0;0;7;0;8765;0;0;0;0;8;0;8715;0;0;0;0;9;0;4603;0;0;0;0
08.11.19;20:20:00;1;359;10260;0;2;0;6765;0;0;0;0;3;0;4218;0;0;0;0;4;0;5630;0;0;0;0;5;0;13384;2;0;0;0;0;0;6;0;10037;2;0;0;0;0;0;7;0;8765;0;0;0;0;8;0;8715;0;0;0;0;9;0;4603;0;0;0;0
08.11.19;20:15:00;1;340;10230;0;2;0;6765;0;0;0;0;3;0;4218;0;0;0;0;4;0;5630;0;0;0;0;5;0;13384;2;0;0;0;0;0;6;0;10037;2;0;0;0;0;0;7;0;8765;0;0;0;0;8;0;8715;0;0;0;0;9;0;4603;0;0;0;0
08.11.19;20:10:00;1;322;10202;0;2;0;6765;0;0;0;0;3;0;4218;0;0;0;0;4;0;5630;0;0;0;0;5;0;13384;2;0;0;0;0;0;6;0;10037;2;0;0;0;0;0;7;0;8765;0;0;0;0;8;0;8715;0;0;0;0;9;0;4603;0;0;0;0
08.11.19;20:05:00;1;208;10176;0;2;0;6765;0;0;0;0;3;0;4218;0;0;0;0;4;0;5630;0;0;0;0;5;0;13384;2;0;0;0;0;0;6;0;10037;2;0;0;0;0;0;7;0;8765;0;0;0;0;8;0;8715;0;0;0;0;9;0;4603;0;0;0;0
08.11.19;20:00:00;1;217;10159;0;2;0;6765;0;0;0;0;3;0;4218;0;0;0;0;4;0;5630;0;0;0;0;5;0;13384;2;0;0;0;0;0;6;0;10037;2;0;0;0;0;0;7;0;8765;0;0;0;0;8;0;8715;0;0;0;0;9;0;4603;0;0;0;0
08.11.19;19:55:00;1;252;10140;0;2;0;6765;0;0;0;0;3;0;4218;0;0;0;0;4;0;5630;0;0;0;0;5;0;13384;2;0;0;0;0;0;6;0;10037;2;0;0;0;0;0;7;0;8765;0;0;0;0;8;0;8715;0;0;0;0;9;0;4603;0;0;0;0
08.11.19;19:50:00;1;258;10119;0;2;0;6765;0;0;0;0;3;0;4218;0;0;0;0;4;0;5630;0;0;0;0;5;0;13384;2;0;0;0;0;0;6;0;10037;2;0;0;0;0;0;7;0;8765;0;0;0;0;8;0;8715;0;0;0;0;9;0;4603;0;0;0;0
08.11.19;19:45:00;1;310;10097;0;2;0;6765;0;0;0;0;3;0;4218;0;0;0;0;4;0;5630;0;0;0;0;5;0;13384;2;0;0;0;0;0;6;0;10037;2;0;0;0;0;0;7;0;8765;0;0;0;0;8;0;8715;0;0;0;0;9;0;4603;0;0;0;0
08.11.19;19:40:00;1;255;10072;0;2;0;6765;0;0;0;0;3;0;4218;0;0;0;0;4;0;5630;0;0;0;0;5;0;13384;2;0;0;0;0;0;6;0;10037;2;0;0;0;0;0;7;0;8765;0;0;0;0;8;0;8715;0;0;0;0;9;0;4603;0;0;0;0
08.11.19;19:35:00;1;282;10051;0;2;0;6765;0;0;0;0;3;0;4218;0;0;0;0;4;0;5630;0;0;0;0;5;0;13384;2;0;0;0;0;0;6;0;10037;2;0;0;0;0;0;7;0;8765;0;0;0;0;8;0;8715;0;0;0;0;9;0;4603;0;0;0;0
08.11.19;19:30:00;1;260;10027;0;2;0;6765;0;0;0;0;3;0;4218;0;0;0;0;4;0;5630;0;0;0;0;5;0;13384;2;0;0;0;0;0;6;0;10037;2;0;0;0;0;0;7;0;8765;0;0;0;0;8;0;8715;0;0;0;0;9;0;4603;0;0;0;0
08.11.19;19:25:00;1;265;10005;0;2;0;6765;0;0;0;0;3;0;4218;0;0;0;0;4;0;5630;0;0;0;0;5;0;13384;2;0;0;0;0;0;6;0;10037;2;0;0;0;0;0;7;0;8765;0;0;0;0;8;0;8715;0;0;0;0;9;0;4603;0;0;0;0
08.11.19;19:20:00;1;227;9983;0;2;0;6765;0;0;0;0;3;0;4218;0;0;0;0;4;0;5630;0;0;0;0;5;0;13384;2;0;0;0;0;0;6;0;10037;2;0;0;0;0;0;7;0;8765;0;0;0;0;8;0;8715;0;0;0;0;9;0;4603;0;0;0;0
08.11.19;19:15:00;1;230;9964;0;2;0;6765;0;0;0;0;3;0;4218;0;0;0;0;4;0;5630;0;0;0;0;5;0;13384;2;0;0;0;0;0;6;0;10037;2;0;0;0;0;0;7;0;8765;0;0;0;0;8;0;8715;0;0;0;0;9;0;4603;0;0;0;0
08.11.19;19:10:00;1;266;9943;0;2;0;6765;0;0;0;0;3;0;4218;0;0;0;0;4;0;5630;0;0;0;0;5;0;13384;2;0;0;0;0;0;6;0;10037;2;0;0;0;0;0;7;0;8765;0;0;0;0;8;0;8715;0;0;0;0;9;0;4603;0;0;0;0
08.11.19;19:05:00;1;272;9922;0;2;0;6765;0;0;0;0;3;0;4218;0;0;0;0;4;0;5630;0;0;0;0;5;0;13384;2;0;0;0;0;0;6;0;10037;2;0;0;0;0;0;7;0;8765;0;0;0;0;8;0;8715;0;0;0;0;9;0;4603;0;0;0;0
08.11.19;19:00:00;1;239;9900;0;2;0;6765;0;0;0;0;3;0;4218;0;0;0;0;4;0;5630;0;0;0;0;5;0;13384;2;0;0;0;0;0;6;0;10037;2;0;0;0;0;0;7;0;8765;0;0;0;0;8;0;8715;0;0;0;0;9;0;4603;0;0;0;0
08.11.19;18:55:00;1;232;9879;0;2;0;6765;0;0;0;0;3;0;4218;0;0;0;0;4;0;5630;0;0;0;0;5;0;13384;2;0;0;0;0;0;6;0;10037;2;0;0;0;0;0;7;0;8765;0;0;0;0;8;0;8715;0;0;0;0;9;0;4603;0;0;0;0
08.11.19;18:50:00;1;230;9859;0;2;0;6765;0;0;0;0;3;0;4218;0;0;0;0;4;0;5630;0;0;0;0;5;0;13384;2;0;0;0;0;0;6;0;10037;2;0;0;0;0;0;7;0;8765;0;0;0;0;8;0;8715;0;0;0;0;9;0;4603;0;0;0;0
08.11.19;18:45:00;1;243;9841;0;2;0;6765;0;0;0;0;3;0;4218;0;0;0;0;4;0;5630;0;0;0;0;5;0;13384;2;0;0;0;0;0;6;0;10037;2;0;0;0;0;0;7;0;8765;0;0;0;0;8;0;8715;0;0;0;0;9;0;4603;0;0;0;0
08.11.19;18:40:00;1;383;9819;0;2;0;6765;0;0;0;0;3;0;4218;0;0;0;0;4;0;5630;0;0;0;0;5;0;13384;2;0;0;0;0;0;6;0;10037;2;0;0;0;0;0;7;0;8765;0;0;0;0;8;0;8715;0;0;0;0;9;0;4603;0;0;0;0
08.11.19;18:35:00;1;498;9784;0;2;0;6765;0;0;0;0;3;0;4218;0;0;0;0;4;0;5630;0;0;0;0;5;0;13384;2;0;0;0;0;0;6;0;10037;2;0;0;0;0;0;7;0;8765;0;0;0;0;8;0;8715;0;0;0;0;9;0;4603;0;0;0;0
08.11.19;18:30:00;1;524;9743;0;2;0;6765;0;0;0;0;3;0;4218;0;0;0;0;4;0;5630;0;0;0;0;5;0;13384;2;0;0;0;0;0;6;0;10037;2;0;0;0;0;0;7;0;8765;0;0;0;0;8;0;8715;0;0;0;0;9;0;4603;0;0;0;0
08.11.19;18:25:00;1;551;9700;0;2;0;6765;0;0;0;0;3;0;4218;0;0;0;0;4;0;5630;0;0;0;0;5;0;13384;2;0;0;0;0;0;6;0;10037;2;0;0;0;0;0;7;0;8765;0;0;0;0;8;0;8715;0;0;0;0;9;0;4603;0;0;0;0
08.11.19;18:20:00;1;550;9652;0;2;0;6765;0;0;0;0;3;0;4218;0;0;0;0;4;0;5630;0;0;0;0;5;0;13384;2;0;0;0;0;0;6;0;10037;2;0;0;0;0;0;7;0;8765;0;0;0;0;8;0;8715;0;0;0;0;9;0;4603;0;0;0;0
08.11.19;18:15:00;1;694;9604;0;2;0;6765;0;0;0;0;3;0;4218;0;0;0;0;4;0;5630;0;0;0;0;5;0;13384;2;0;0;0;0;0;6;0;10037;2;0;0;0;0;0;7;0;8765;0;0;0;0;8;0;8715;0;0;0;0;9;0;4603;0;0;0;0
08.11.19;18:10:00;1;2221;9536;0;2;0;6765;0;0;0;0;3;0;4218;0;0;0;0;4;0;5630;0;0;0;0;5;0;13384;2;0;0;0;0;0;6;0;10037;2;0;0;0;0;0;7;0;8765;0;0;0;0;8;0;8715;0;0;0;0;9;0;4603;0;0;0;0
08.11.19;18:05:00;1;1643;9356;0;2;0;6765;0;0;0;0;3;0;4218;0;0;0;0;4;0;5630;0;0;0;0;5;0;13384;2;0;0;0;0;0;6;0;10037;2;0;0;0;0;0;7;0;8765;0;0;0;0;8;0;8715;0;0;0;0;9;0;4603;0;0;0;0
08.11.19;18:00:00;1;1189;9230;0;2;0;6765;0;0;0;0;3;0;4218;0;0;0;0;4;0;5630;0;0;0;0;5;0;13384;2;0;0;0;0;0;6;0;10037;2;0;0;0;0;0;7;0;8765;0;0;0;0;8;0;8715;0;0;0;0;9;0;4603;0;0;0;0
08.11.19;17:55:00;1;1253;9131;0;2;0;6765;0;0;0;0;3;0;4218;0;0;0;0;4;0;5630;0;0;0;0;5;0;13384;2;0;0;0;0;0;6;0;10037;2;0;0;0;0;0;7;0;8765;0;0;0;0;8;0;8715;0;0;0;0;9;0;4603;0;0;0;0
08.11.19;17:50:00;1;1291;9025;0;2;0;6765;0;0;0;0;3;0;4218;0;0;0;0;4;0;5630;0;0;0;0;5;0;13384;2;0;0;0;0;0;6;0;10037;2;0;0;0;0;0;7;0;8765;0;0;0;0;8;0;8715;0;0;0;0;9;0;4603;0;0;0;0
08.11.19;17:45:00;1;1459;8915;0;2;0;6765;0;0;0;0;3;0;4218;0;0;0;0;4;0;5630;0;0;0;0;5;0;13384;2;0;0;0;0;0;6;0;10037;2;0;0;0;0;0;7;0;8765;0;0;0;0;8;0;8715;0;0;0;0;9;0;4603;0;0;0;0
08.11.19;17:40:00;1;1341;8796;0;2;0;6765;0;0;0;0;3;0;4218;0;0;0;0;4;0;5630;0;0;0;0;5;0;13384;2;0;0;0;0;0;6;0;10037;2;0;0;0;0;0;7;0;8765;0;0;0;0;8;0;8715;0;0;0;0;9;0;4603;0;0;0;0
08.11.19;17:35:00;1;1506;8683;0;2;0;6765;0;0;0;0;3;0;4218;0;0;0;0;4;0;5630;0;0;0;0;5;0;13384;2;0;0;0;0;0;6;0;10037;2;0;0;0;0;0;7;0;8765;0;0;0;0;8;0;8715;0;0;0;0;9;0;4603;0;0;0;0
08.11.19;17:30:00;1;1326;8555;0;2;0;6765;0;0;0;0;3;0;4218;0;0;0;0;4;0;5630;0;0;0;0;5;0;13384;2;0;0;0;0;0;6;0;10037;2;0;0;0;0;0;7;0;8765;0;0;0;0;8;0;8715;0;0;0;0;9;0;4603;0;0;0;0
08.11.19;17:25:00;1;1310;8446;0;2;0;6765;0;0;0;0;3;0;4218;0;0;0;0;4;0;5630;0;0;0;0;5;0;13384;2;0;0;0;0;0;6;0;10037;2;0;0;0;0;0;7;0;8765;0;0;0;0;8;0;8715;0;0;0;0;9;0;4603;0;0;0;0
08.11.19;17:20:00;1;1204;8338;0;2;0;6765;0;0;0;0;3;0;4218;0;0;0;0;4;0;5630;0;0;0;0;5;0;13384;2;0;0;0;0;0;6;0;10037;2;0;0;0;0;0;7;0;8765;0;0;0;0;8;0;8715;0;0;0;0;9;0;4603;0;0;0;0
08.11.19;17:15:00;1;1204;8238;0;2;0;6765;0;0;0;0;3;0;4218;0;0;0;0;4;0;5630;0;0;0;0;5;0;13384;2;0;0;0;0;0;6;0;10037;2;0;0;0;0;0;7;0;8765;0;0;0;0;8;0;8715;0;0;0;0;9;0;4603;0;0;0;0
08.11.19;17:10:00;1;1214;8137;0;2;0;6765;0;0;0;0;3;0;4218;0;0;0;0;4;0;5630;0;0;0;0;5;0;13384;2;0;0;0;0;0;6;0;10037;2;0;0;0;0;0;7;0;8765;0;0;0;0;8;0;8715;0;0;0;0;9;0;4603;0;0;0;0
08.11.19;17:05:00;1;1250;8035;0;2;0;6765;0;0;0;0;3;0;4218;0;0;0;0;4;0;5630;0;0;0;0;5;0;13384;2;0;0;0;0;0;6;0;10037;2;0;0;0;0;0;7;0;8765;0;0;0;0;8;0;8715;0;0;0;0;9;0;4603;0;0;0;0
08.11.19;17:00:00;1;1263;7931;0;2;0;6765;0;0;0;0;3;0;4218;0;0;0;0;4;0;5630;0;0;0;0;5;0;13384;2;0;0;0;0;0;6;0;10037;2;0;0;0;0;0;7;0;8765;0;0;0;0;8;0;8715;0;0;0;0;9;0;4603;0;0;0;0
08.11.19;16:55:00;1;1193;7827;0;2;0;6765;0;0;157;10;3;0;4218;0;0;231;16;4;0;5630;0;0;11;3;5;0;13384;2;0;0;0;0;0;6;0;10037;2;0;0;0;0;0;7;0;8765;0;0;0;0;8;0;8715;0;0;0;0;9;0;4603;0;0;0;0
08.11.19;16:50:00;1;1155;7727;0;2;0;6765;6;0;306;17;3;0;4218;6;0;354;20;4;0;5630;2;0;83;16;5;0;13384;2;0;3;32;31;3;6;0;10037;2;0;0;0;0;0;7;0;8765;0;0;0;0;8;0;8715;0;0;0;0;9;0;4603;0;0;0;0
08.11.19;16:45:00;1;1076;7631;0;2;0;6765;6;0;345;18;3;0;4218;6;2;410;20;4;0;5630;1;0;127;16;5;0;13384;2;0;0;326;360;26;6;0;10037;23;7;2;179;403;25;7;0;8765;0;0;159;12;8;0;8715;0;0;161;11;9;0;4603;0;0;225;12
08.11.19;16:40:00;1;1061;7543;0;2;0;6765;6;0;375;18;3;0;4218;4;5;427;21;4;0;5630;1;0;175;17;5;0;13384;23;0;0;402;547;27;6;0;10037;23;1;9;483;245;25;7;0;8765;6;0;336;20;8;0;8715;6;0;341;19;9;0;4603;6;0;358;16
08.11.19;16:35:00;1;1152;7454;0;2;0;6765;6;0;394;19;3;1;4218;6;4;475;21;4;0;5630;1;0;211;17;5;5;13384;1;0;0;414;639;27;6;0;10037;23;6;4;261;489;26;7;0;8765;6;0;404;20;8;0;8715;6;0;408;20;9;0;4603;6;0;418;16
08.11.19;16:30:00;1;1553;7338;0;2;0;6765;6;0;411;19;3;0;4218;6;5;502;21;4;0;5630;3;0;223;18;5;62;13383;1;4;9;387;618;28;6;7;10037;23;7;13;502;539;27;7;0;8765;6;1;443;21;8;1;8715;6;1;446;20;9;1;4603;6;2;481;16
08.11.19;16:25:00;1;1811;7200;0;2;4;6765;4;10;409;20;3;4;4218;6;15;480;22;4;1;5630;3;1;199;18;5;106;13377;4;22;30;379;606;28;6;56;10036;4;20;19;425;322;28;7;4;8765;3;13;433;21;8;1;8715;4;5;464;20;9;3;4603;6;9;478;16
08.11.19;16:20:00;1;1172;7054;0;2;49;6765;4;84;363;20;3;3;4218;6;9;524;22;4;9;5630;3;9;198;18;5;145;13368;4;46;47;379;606;28;6;77;10031;4;47;39;426;322;28;7;16;8765;6;24;441;21;8;15;8715;3;24;444;21;9;1;4602;6;6;527;17
08.11.19;16:15:00;1;1009;6966;0;2;72;6761;4;105;366;21;3;6;4218;6;13;532;22;4;25;5629;3;26;198;18;5;188;13355;4;71;65;379;606;28;6;103;10025;4;53;45;426;322;28;7;48;8764;4;83;369;22;8;47;8714;4;84;402;21;9;4;4602;6;9;537;17
08.11.19;16:10:00;1;715;6881;0;2;114;6755;4;150;372;21;3;63;4217;4;102;468;23;4;65;5627;3;68;198;19;5;261;13339;4;109;100;379;606;28;6;141;10016;4;77;65;425;322;28;7;88;8760;4;129;430;22;8;63;8710;4;87;285;14;9;14;4602;4;24;535;17
08.11.19;16:05:00;1;479;6823;0;2;166;6745;4;204;366;22;3;94;4212;4;135;477;23;4;109;5621;3;113;219;19;5;336;13317;4;153;134;379;606;28;6;182;10004;4;93;75;426;333;28;7;144;8752;4;185;420;22;8;144;8702;4;184;427;21;9;76;4601;4;106;472;18
08.11.19;16:00:00;1;417;6783;0;2;246;6731;4;289;384;22;3;149;4204;4;190;492;24;4;189;5612;5;197;227;19;5;457;13288;4;214;192;393;612;29;6;327;9988;4;156;174;512;526;28;7;238;8740;4;278;458;22;8;232;8690;4;273;461;22;9;122;4594;4;154;503;18
08.11.19;15:55:00;1;477;6748;0;2;290;6711;4;338;398;22;3;178;4192;4;220;494;24;4;228;5597;5;237;229;19;5;529;13249;4;260;220;401;616;29;6;401;9959;4;201;213;578;551;28;7;179;8710;0;212;283;13;8;307;8671;4;344;447;22;9;157;4584;4;190;509;19
08.11.19;15:50:00;1;416;6709;0;2;355;6687;4;400;394;23;3;214;4177;4;260;507;24;4;272;5577;5;283;232;20;5;608;13205;4;289;257;397;626;29;6;459;9926;4;216;237;566;557;28;7;389;8696;4;426;467;22;8;374;8645;4;419;452;22;9;121;4571;4;145;341;12
08.11.19;15:45:00;1;421;6674;0;2;518;6657;4;574;405;23;3;297;4159;4;347;538;25;4;372;5555;5;387;243;20;5;803;13153;4;388;338;411;650;29;6;598;9887;4;291;308;574;563;28;7;271;8642;0;296;187;9;8;204;8614;4;223;190;8;9;133;4556;4;157;321;11
08.11.19;15:40:00;1;413;6639;0;2;638;6615;4;696;397;24;3;361;4135;4;416;536;25;4;449;5524;5;468;245;20;5;968;13085;4;477;409;419;659;29;6;730;9836;4;355;371;581;563;28;7;755;8620;4;810;472;23;8;667;8576;4;712;438;22;9;264;4539;4;305;547;20
08.11.19;15:35:00;1;412;6605;0;2;719;6562;4;780;396;24;3;411;4105;4;467;545;25;4;496;5487;5;516;246;20;5;1118;13002;4;565;474;417;677;29;6;851;9774;4;427;431;589;570;28;7;914;8557;4;974;476;23;8;822;8521;4;875;447;22;9;302;4517;4;346;553;20
08.11.19;15:30:00;1;435;6570;0;2;698;6501;4;760;406;24;3;399;4070;4;457;547;25;4;493;5445;5;514;246;20;5;1108;12909;4;563;470;415;683;29;6;843;9703;4;423;424;583;571;28;7;877;8481;4;942;474;23;8;828;8453;4;890;465;23;9;315;4491;4;362;557;20
08.11.19;15:25:00;1;483;6533;0;2;739;6443;4;803;408;25;3;434;4037;4;492;547;25;4;527;5404;5;549;243;20;5;1199;12816;4;605;507;416;687;29;6;906;9632;4;457;463;595;571;28;7;932;8408;4;989;474;23;8;895;8384;4;950;464;23;9;334;4465;4;382;561;20
08.11.19;15:20:00;1;475;6493;0;2;782;6382;4;848;407;25;3;475;4001;4;533;541;26;4;600;5360;5;624;244;21;5;1324;12717;4;664;566;417;681;29;6;1012;9556;4;510;512;590;570;28;7;973;8330;4;1043;473;23;8;964;8309;4;1031;476;23;9;419;4437;4;469;562;21
08.11.19;15:15:00;1;469;6452;0;2;742;6317;4;807;410;25;3;463;3961;4;519;533;26;4;568;5311;5;591;241;21;5;1261;12606;4;648;535;417;684;29;6;956;9472;4;481;482;586;568;28;7;891;8249;4;957;474;23;8;879;8229;4;940;471;23;9;421;4403;4;470;514;21
08.11.19;15:10:00;1;726;6408;0;2;839;6255;4;906;408;25;3;517;3922;4;575;536;26;4;646;5263;5;673;242;21;5;1475;12499;4;755;633;420;684;29;6;1118;9391;4;591;586;594;566;28;7;1131;8174;4;1203;474;23;8;1132;8154;4;1207;477;23;9;561;4367;4;615;507;21
08.11.19;15:05:00;1;583;6349;0;2;930;6185;4;1001;411;26;3;575;3879;4;639;539;26;4;720;5209;5;750;242;21;5;1614;12376;4;833;694;419;689;29;6;1220;9297;4;621;620;595;567;28;7;1108;8082;4;1177;477;24;8;1094;8063;4;1163;476;23;9;556;4323;4;610;518;21
08.11.19;15:00:00;1;584;6300;0;2;974;6107;4;1046;411;26;3;614;3831;4;675;533;26;4;775;5149;5;807;242;21;5;1699;12241;4;876;729;422;690;29;6;1288;9194;4;663;658;598;568;28;7;1164;7989;4;1228;475;24;8;1145;7970;4;1215;474;23;9;596;4275;4;654;532;22
08.11.19;14:55:00;1;581;6252;0;2;1099;6026;4;1173;406;26;3;672;3780;4;739;545;26;4;854;5085;5;889;244;21;5;1882;12099;4;971;814;420;690;29;6;1427;9085;4;723;709;597;575;28;7;1292;7891;4;1369;483;24;8;1278;7875;4;1353;479;24;9;675;4225;4;734;539;22
08.11.19;14:50:00;1;623;6203;0;2;1190;5934;4;1269;401;27;3;679;3724;4;750;554;26;4;868;5014;5;904;246;21;5;2010;11943;4;1050;875;425;690;29;6;1527;8966;4;787;781;599;576;28;7;1435;7783;4;1520;483;24;8;1410;7767;4;1490;474;23;9;522;4146;0;567;359;14
08.11.19;14:45:00;1;582;6150;0;2;1182;5837;4;1259;416;27;3;697;3668;4;763;547;26;4;903;4942;5;940;246;21;5;2109;11773;4;1114;911;428;704;29;6;1626;8837;4;842;838;599;575;28;7;1590;7665;4;1682;491;24;8;1604;7650;4;1688;484;24;9;857;4104;4;926;534;22
08.11.19;14:40:00;1;565;6105;0;2;1095;5736;4;1168;405;27;3;680;3609;4;748;535;26;4;882;4866;5;919;245;21;5;1942;11598;4;1022;846;427;692;30;6;1492;8702;4;764;770;595;573;28;7;1338;7532;4;1416;481;24;8;1331;7517;4;1411;481;24;9;706;4034;4;772;531;22
08.11.19;14:35:00;1;601;6057;0;2;1101;5645;4;1175;406;27;3;675;3553;4;743;538;26;4;859;4792;5;895;247;21;5;1953;11436;4;1012;844;420;686;30;6;1485;8578;4;761;751;595;569;28;7;1340;7421;4;1417;480;24;8;1332;7407;4;1409;480;24;9;713;3975;4;776;536;22
08.11.19;14:30:00;1;640;6006;0;2;1017;5553;4;1091;408;27;3;642;3496;4;705;524;26;4;826;4721;5;860;243;22;5;1863;11273;4;959;808;423;692;30;6;1419;8453;4;729;722;595;571;28;7;1245;7308;4;1312;479;24;8;1217;7294;4;1297;482;24;9;655;3914;4;712;528;22
08.11.19;14:25:00;1;736;5953;0;2;1226;5468;4;1306;406;27;3;773;3443;4;843;523;27;4;952;4652;5;992;244;22;5;2145;11118;4;1117;936;420;684;30;6;1626;8335;4;820;810;595;572;28;7;1433;7205;4;1520;478;25;8;1417;7193;4;1497;482;24;9;758;3860;4;824;531;23
08.11.19;14:20:00;1;1794;5897;0;2;1476;5367;4;1565;409;28;3;927;3379;4;1001;530;27;4;1100;4573;5;1145;247;22;5;2574;10936;4;1380;1126;426;699;30;6;1993;8195;4;1026;996;597;577;28;7;1151;7039;0;1212;287;15;8;1472;7075;4;1550;383;19;9;989;3797;4;1059;537;23
08.11.19;14:15:00;1;886;5754;0;2;1378;5245;4;1462;409;27;3;881;3302;4;955;526;27;4;1070;4482;5;1114;246;22;5;2422;10720;4;1275;1061;426;694;30;6;1850;8030;4;921;900;603;581;28;7;1729;6930;4;1819;475;25;8;1079;6921;4;1131;284;14;9;931;3714;4;998;531;23
08.11.19;14:10:00;1;566;5695;0;2;1362;5128;4;1445;403;28;3;861;3227;4;930;516;27;4;1035;4392;5;1078;247;22;5;2353;10517;4;1242;1039;421;690;30;6;1815;7874;4;920;904;594;579;28;7;1773;6785;4;1860;478;25;8;1444;6745;0;1522;400;20;9;933;3637;4;1005;532;23
08.11.19;14:05:00;1;690;5643;0;2;1492;5013;4;1587;408;28;3;931;3155;4;1008;539;27;4;1137;4305;5;1184;249;22;5;2637;10316;4;1402;1162;422;696;29;6;2058;7720;4;1045;1033;594;582;28;7;1920;6636;4;2020;480;25;8;1484;6631;4;1558;379;19;9;964;3559;4;1038;520;23
08.11.19;14:00:00;1;605;5593;0;2;2414;4889;4;2546;425;27;3;1572;3077;4;1672;522;26;4;1698;4210;5;1769;256;21;5;4195;10081;4;2276;1856;426;699;29;6;3162;7541;4;1647;1588;615;578;28;7;3149;6477;4;3309;476;24;8;3143;6479;4;3293;481;24;9;1726;3479;4;1828;516;24